Regional Weather Roundup
Issued by NWS

Home | Current Version | Previous Version | Text Only | Print | Product List | Glossary On
Versions: 1 2 3 4 5 6 7 8 9 10 11 12 13 14 15 16 17 18 19 20 21 22 23 24 25 26 27 28 29 30 31 32 33 34 35 36 37 38 39 40 41 42 43 44 45 46 47 48 49 50
000
ASUS43 KLMK 021802
RWRKY
KENTUCKY REGIONAL WEATHER ROUNDUP
NATIONAL WEATHER SERVICE LOUISVILLE KY
100 PM EST FRI DEC 02 2016

NOTE "FAIR" INDICATES FEW OR NO CLOUDS BELOW 12,000 FEET
WITH NO SIGNIFICANT WEATHER AND/OR OBSTRUCTIONS TO VISIBILITY.

KYZ001>023-026-027-061>063-070>075-021900-
WESTERN AND SOUTH CENTRAL KENTUCKY

CITY           SKY/WX    TMP DP  RH WIND       PRES   REMARKS
PADUCAH        SUNNY     51  29  42 VRB6      30.27F
HENDERSON      SUNNY     46  30  53 NW6       30.26F
OWENSBORO      SUNNY     45  32  60 VRB6      30.26F
HOPKINSVILLE   NOT AVBL
BOWLING GREEN  SUNNY     51  28  41 W8        30.25F
GLASGOW        NOT AVBL
$$

KYZ024-025-028>034-038-045-046-053-021900-
NORTH CENTRAL KENTUCKY

CITY           SKY/WX    TMP DP  RH WIND       PRES   REMARKS
LOUISVILLE/SDF PTSUNNY   45  28  51 W10       30.24F
LOUISVILLE/LOU PTSUNNY   45  29  53 W8        30.24F
FORT KNOX      SUNNY     45  31  57 NW5       30.22F
$$

KYZ035>037-039>044-047>052-055>060-089>105-021900-
NORTHEAST KENTUCKY

CITY           SKY/WX    TMP DP  RH WIND       PRES   REMARKS
LEXINGTON      CLOUDY    42  28  57 NW6       30.23S
COVINGTON      CLOUDY    39  30  70 W8        30.20F WCI  33
FRANKFORT      CLOUDY    42  29  59 VRB6      30.22F
$$

KYZ054-064>069-076>088-106>120-021900-
SOUTHEAST KENTUCKY

CITY           SKY/WX    TMP DP  RH WIND       PRES   REMARKS
JACKSON        PTSUNNY   40  29  64 NW7       30.20F
LONDON         SUNNY     47  28  47 W9        30.21F
SOMERSET       SUNNY     46  28  49 NW10      30.23F
MIDDLESBORO    SUNNY     51  27  39 W6        30.21F
MONTICELLO     CLEAR     50  31  48 W9G18     30.23F
$$





USA.gov is the U.S. government's official web portal to all federal, state and local government web resources and services.